DW3201 Weather Reports


time (UTC)temp
F
wind
direction
speed
knots
gust
knots
rain 1hr
in
rain 24hr
in
rain mn
in
humidity
%
barometer
mb
20260831213101 83 256 2.6 5.2 0.00 0.12 0.10 73 1011.9
20260831211607 83 239 1.7 5.2 0.00 0.12 0.10 71 1012.0
20260831210103 83 274 0.9 2.6 0.00 0.12 0.10 74 1011.9
20260831204559 82 0 0.0 0.9 0.00 0.17 0.10 75 1011.5
20260831203058 81 0 0.0 0.0 0.00 0.17 0.10 76 1011.3
20260831201600 81 0 0.0 1.7 0.00 0.17 0.10 74 1011.3
20260831200100 81 263 1.7 3.5 0.00 0.17 0.10 73 1011.9
20260831194620 83 270 0.0 0.9 0.00 0.19 0.10 72 1011.8
20260831193100 83 0 0.9 2.6 0.00 0.19 0.10 70 1011.7
20260831191559 84 251 2.6 4.3 0.00 0.19 0.10 68 1011.8
20260831190119 84 260 3.5 6.1 0.00 0.19 0.10 66 1011.9
20260831184603 85 276 3.5 7.0 0.00 0.26 0.10 63 1011.7
20260831183108 84 264 3.5 8.7 0.00 0.26 0.10 63 1011.9
20260831181600 84 255 5.2 8.7 0.00 0.26 0.10 63 1012.0
20260831180100 85 280 3.5 8.7 0.00 0.26 0.10 62 1012.0
20260831174610 85 283 1.7 5.2 0.00 0.26 0.10 65 1011.8
20260831173102 83 274 2.6 7.0 0.00 0.26 0.10 67 1012.1
20260831171605 82 285 2.6 5.2 0.00 0.26 0.10 69 1012.3
20260831170106 81 284 0.9 4.3 0.00 0.26 0.10 71 1012.4
20260831164607 81 291 2.6 5.2 0.00 0.26 0.10 70 1012.5
20260831163100 81 281 2.6 7.0 0.00 0.26 0.10 71 1012.6
20260831161601 80 278 1.7 4.3 0.00 0.26 0.10 70 1012.5
20260831154630 79 277 1.7 4.3 0.00 0.26 0.10 71 1012.4
20260831153104 78 257 1.7 3.5 0.00 0.26 0.10 73 1012.5
20260831151612 78 285 1.7 5.2 0.00 0.26 0.10 73 1012.7
20260831150056 77 267 1.7 3.5 0.00 0.26 0.10 76 1012.5
20260831144602 76 248 0.9 1.7 0.00 0.26 0.10 79 1012.5
20260831143108 75 0 0.9 1.7 0.00 0.26 0.10 82 1012.5
20260831141559 74 287 0.0 1.7 0.00 0.26 0.10 83 1012.5
20260831140109 74 323 0.0 1.7 0.00 0.26 0.10 82 1012.4
20260831134603 73 44 0.0 4.3 0.00 0.26 0.10 82 1012.4
20260831133059 73 72 0.0 2.6 0.00 0.26 0.10 82 1012.4
20260831131610 73 75 0.0 2.6 0.00 0.26 0.10 84 1012.1
20260831130121 72 60 0.0 2.6 0.00 0.26 0.10 85 1012.2
20260831124603 72 0 0.0 1.7 0.00 0.26 0.10 86 1012.2
20260831123109 71 32 0.0 1.7 0.00 0.26 0.10 89 1012.5
20260831121615 70 20 0.0 1.7 0.00 0.26 0.10 90 1012.5
20260831120101 70 43 0.0 2.6 0.00 0.26 0.10 91 1012.4
20260831114602 70 46 0.9 3.5 0.00 0.26 0.10 91 1012.2
20260831113103 70 71 0.0 1.7 0.00 0.26 0.10 91 1012.5
20260831111605 70 0 0.9 2.6 0.00 0.26 0.10 91 1012.5
20260831110107 70 107 1.7 4.3 0.07 0.26 0.10 91 1012.6
20260831104604 71 123 3.5 7.8 0.08 0.27 0.10 92 1012.6
20260831103103 70 101 4.3 6.1 0.10 0.27 0.10 94 1012.8
20260831101604 70 0 0.0 1.7 0.10 0.27 0.10 94 1012.9
20260831100107 70 0 0.0 0.9 0.03 0.20 0.03 93 1013.0
20260831094632 70 69 1.7 3.5 0.02 0.22 0.02 93 1012.7
20260831093101 70 0 0.0 0.9 0.00 0.20 0.00 93 1012.8
20260831091617 70 0 0.0 0.0 0.00 0.20 0.00 93 1012.5
20260831084616 70 0 0.0 0.0 0.00 0.60 0.00 93 1012.8
20260831083102 70 0 0.0 0.9 0.00 0.60 0.00 94 1012.8
20260831081602 69 0 0.0 0.9 0.00 0.60 0.00 94 1012.7
20260831080100 70 0 0.0 1.7 0.00 0.60 0.00 93 1012.7
20260831074605 70 83 0.9 2.6 0.00 0.60 0.00 93 1012.9
20260831073102 69 79 0.0 1.7 0.00 0.60 0.00 94 1013.1
20260831071615 70 82 0.9 1.7 0.00 0.60 0.00 94 1013.4
20260831070104 69 73 0.0 1.7 0.00 0.60 0.00 94 1013.6
20260831064615 69 0 0.0 0.0 0.00 0.60 0.00 93 1014.0
20260831063110 70 0 0.0 0.0 0.00 0.60 0.00 93 1014.0
20260831061601 70 0 0.0 0.9 0.00 0.60 0.00 93 1014.1
20260831060111 70 0 0.0 0.0 0.00 0.60 0.00 92 1014.1
20260831054605 71 0 0.0 0.9 0.00 0.60 0.00 92 1014.1
20260831053102 71 0 0.0 1.7 0.00 0.60 0.00 91 1013.9
20260831051614 71 68 0.0 0.9 0.00 0.60 0.00 92 1013.7
20260831050111 71 0 0.0 0.0 0.00 0.60 0.00 91 1013.8
20260831044605 71 0 0.0 0.0 0.00 0.60 0.60 91 1013.7
20260831043105 71 0 0.0 0.9 0.00 0.60 0.60 90 1013.6
20260831041600 72 0 0.0 0.9 0.00 0.60 0.60 90 1013.5
20260831040101 72 45 0.0 0.9 0.00 0.60 0.60 90 1013.4
20260831034601 72 0 0.0 0.9 0.00 0.60 0.60 89 1013.5
20260831033059 72 70 0.9 3.5 0.00 0.60 0.60 90 1013.0
20260831031558 72 72 0.0 0.9 0.00 0.60 0.60 89 1013.3
20260831030105 72 0 0.0 0.9 0.00 0.60 0.60 88 1013.9
20260831024602 73 0 0.0 4.3 0.00 0.60 0.60 87 1014.1
20260831023110 72 283 1.7 5.2 0.00 0.60 0.60 87 1013.5
20260831021557 72 282 2.6 7.0 0.00 0.60 0.60 87 1014.0
20260831020115 72 239 2.6 6.1 0.00 0.60 0.60 87 1013.7
20260831014600 72 281 3.5 5.2 0.00 0.60 0.60 88 1013.8
20260831013100 72 274 1.7 4.3 0.00 0.60 0.60 89 1013.9
20260831011607 71 276 1.7 5.2 0.00 0.60 0.60 89 1014.2
20260831010106 71 274 2.6 4.3 0.00 0.60 0.60 89 1014.2
20260831004604 71 250 1.7 2.6 0.00 0.60 0.60 90 1013.6
20260831003105 71 293 1.7 2.6 0.00 0.60 0.60 91 1013.6
20260831001602 71 274 0.9 2.6 0.00 0.60 0.60 91 1013.5
20260831000105 71 278 0.9 2.6 0.00 0.60 0.60 91 1013.3
20260830234615 71 0 0.0 1.7 0.00 0.60 0.60 91 1013.2
20260830233105 72 278 0.0 0.9 0.00 0.60 0.60 91 1013.1
20260830231611 72 0 0.0 2.6 0.00 0.60 0.60 90 1013.0
20260830230105 72 231 0.9 2.6 0.00 0.60 0.60 91 1013.1
20260830224609 72 278 0.9 2.6 0.01 0.60 0.60 90 1013.2
20260830223103 72 280 1.7 3.5 0.01 0.60 0.60 89 1013.1
20260830221605 72 284 0.9 4.3 0.01 0.60 0.60 89 1013.2
20260830220115 72 253 1.7 5.2 0.02 0.60 0.60 90 1013.1